When you browse on this site, cookies collect data to enhance your experience and personalize the content and advertising you see.
Visit our Privacy Policy to learn more. By continuing to use the site, you agree to this use of cookies and data.
  • în România
  • Lista ţărilor
  • Pe 7 zile
  • Temperatura apei
  • Hartă satelitară
  • Meteo pe hartă
  • Widget-uri
  • user-avatar
    Intrare

    Meteo pe oră la Wroniec

    Astăzi, 19 Decembrie, Miercuri

    Timp Temperatura Precipitaţii Vânt Presiune Umiditate
    00:00 -4°C° 0 mm 2 m/s 749 mmHg 91%
    01:00 -4°C° 0 mm 2 m/s 749 mmHg 91%
    02:00 -5°C° 0 mm 2 m/s 749 mmHg 91%
    03:00 -5°C° 0 mm 2 m/s 749 mmHg 91%
    04:00 -5°C° 0 mm 2 m/s 749 mmHg 91%
    05:00 -5°C° 0 mm 2 m/s 749 mmHg 90%
    06:00 -6°C° 0 mm 2 m/s 749 mmHg 89%
    07:00 -6°C° 0 mm 2 m/s 749 mmHg 89%
    08:00 -5°C° 0 mm 2 m/s 748 mmHg 86%
    09:00 -4°C° 0 mm 2 m/s 748 mmHg 83%
    10:00 -3°C° 0 mm 2 m/s 748 mmHg 80%
    11:00 -3°C° 0 mm 2 m/s 748 mmHg 80%
    12:00 -2°C° 0 mm 2 m/s 747 mmHg 79%
    13:00 -1°C° 0 mm 2 m/s 747 mmHg 78%
    14:00 -2°C° 0 mm 2 m/s 747 mmHg 81%
    15:00 -3°C° 0 mm 2 m/s 746 mmHg 84%
    16:00 -4°C° 0 mm 2 m/s 746 mmHg 87%
    17:00 -4°C° 0 mm 2 m/s 746 mmHg 87%
    18:00 -5°C° 0 mm 2 m/s 746 mmHg 87%
    19:00 -5°C° 0 mm 2 m/s 746 mmHg 87%
    20:00 -5°C° 0 mm 2 m/s 745 mmHg 87%
    21:00 -5°C° 0 mm 2 m/s 745 mmHg 86%
    22:00 -5°C° 0 mm 2 m/s 745 mmHg 86%
    23:00 -5°C° 0 mm 2 m/s 745 mmHg 85%

    Mâine, 20 Decembrie, Joi

    Timp Temperatura Precipitaţii Vânt Presiune Umiditate
    00:00 -4°C° 0 mm 2 m/s 745 mmHg 84%
    01:00 -4°C° 0 mm 2 m/s 745 mmHg 83%
    02:00 -4°C° 0 mm 2 m/s 744 mmHg 82%
    03:00 -4°C° 0 mm 2 m/s 744 mmHg 81%
    04:00 -1°C° 0 mm 1 m/s 744 mmHg 80%
    05:00 -1°C° 0 mm 1 m/s 744 mmHg 79%
    06:00 -1°C° 0 mm 1 m/s 744 mmHg 79%
    07:00 -1°C° 0 mm 1 m/s 744 mmHg 78%
    08:00 0°C° 0 mm 1 m/s 744 mmHg 78%
    09:00 0°C° 0 mm 1 m/s 744 mmHg 78%
    10:00 +1°C° 0 mm 1 m/s 744 mmHg 77%
    11:00 +1°C° 0 mm 1 m/s 744 mmHg 78%
    12:00 -1°C° 0 mm 2 m/s 744 mmHg 78%
    13:00 +1°C° 0 mm 2 m/s 744 mmHg 78%
    14:00 -1°C° 0 mm 2 m/s 744 mmHg 80%
    15:00 0°C° 0 mm 1 m/s 744 mmHg 82%
    16:00 0°C° 0 mm 1 m/s 744 mmHg 84%
    17:00 -2°C° 0.1 mm 2 m/s 744 mmHg 85%
    18:00 -2°C° 0.1 mm 2 m/s 744 mmHg 87%
    19:00 -2°C° 0.1 mm 2 m/s 744 mmHg 88%
    20:00 -2°C° 0.1 mm 2 m/s 744 mmHg 89%
    21:00 -1°C° 0.1 mm 3 m/s 744 mmHg 89%
    22:00 -1°C° 0.1 mm 3 m/s 744 mmHg 89%
    23:00 -1°C° 0.1 mm 3 m/s 744 mmHg 89%

    Poimâine, 21 Decembrie, Vineri

    Timp Temperatura Precipitaţii Vânt Presiune Umiditate
    00:00 -1°C° 0.1 mm 3 m/s 744 mmHg 89%
    01:00 -1°C° 0.1 mm 3 m/s 744 mmHg 89%
    02:00 -1°C° 0 mm 3 m/s 744 mmHg 89%
    03:00 -1°C° 0 mm 3 m/s 744 mmHg 89%
    04:00 -2°C° 0 mm 3 m/s 744 mmHg 89%
    05:00 -2°C° 0 mm 3 m/s 743 mmHg 89%
    06:00 -2°C° 0 mm 3 m/s 743 mmHg 88%
    07:00 -2°C° 0 mm 3 m/s 743 mmHg 88%
    08:00 -1°C° 0 mm 3 m/s 743 mmHg 87%
    09:00 0°C° 0 mm 3 m/s 743 mmHg 86%
    10:00 +1°C° 0 mm 3 m/s 743 mmHg 85%
    11:00 +1°C° 0.2 mm 3 m/s 742 mmHg 85%
    12:00 +1°C° 0.2 mm 4 m/s 741 mmHg 85%
    13:00 +1°C° 0.2 mm 4 m/s 741 mmHg 85%
    14:00 +2°C° 0.2 mm 3 m/s 740 mmHg 85%
    15:00 +2°C° 0.2 mm 3 m/s 740 mmHg 85%
    16:00 +2°C° 0.2 mm 3 m/s 739 mmHg 85%
    17:00 +1°C° 0.5 mm 4 m/s 739 mmHg 85%
    18:00 +1°C° 0.5 mm 4 m/s 738 mmHg 85%
    19:00 +1°C° 0.5 mm 4 m/s 737 mmHg 85%
    20:00 +1°C° 0.2 mm 5 m/s 737 mmHg 85%
    21:00 +1°C° 0.2 mm 5 m/s 736 mmHg 85%
    22:00 +2°C° 0.2 mm 5 m/s 735 mmHg 86%
    23:00 +2°C° 0.3 mm 6 m/s 735 mmHg 86%

    22 Decembrie, Sâmbătă

    Timp Temperatura Precipitaţii Vânt Presiune Umiditate
    00:00 +2°C° 0.3 mm 6 m/s 735 mmHg 86%
    01:00 +3°C° 0.3 mm 6 m/s 735 mmHg 86%
    02:00 +3°C° 0.2 mm 7 m/s 735 mmHg 86%
    03:00 +3°C° 0.2 mm 7 m/s 734 mmHg 86%
    04:00 +4°C° 0.2 mm 7 m/s 734 mmHg 86%
    05:00 +3°C° 0 mm 6 m/s 734 mmHg 87%
    06:00 +3°C° 0 mm 6 m/s 735 mmHg 88%
    07:00 +3°C° 0 mm 6 m/s 735 mmHg 88%
    08:00 +3°C° 0 mm 6 m/s 735 mmHg 88%
    09:00 +4°C° 0 mm 6 m/s 735 mmHg 88%
    10:00 +4°C° 0 mm 6 m/s 735 mmHg 88%
    11:00 +4°C° 0.2 mm 6 m/s 734 mmHg 87%
    12:00 +4°C° 0.2 mm 6 m/s 734 mmHg 87%
    13:00 +4°C° 0.2 mm 6 m/s 734 mmHg 86%
    14:00 +4°C° 0.1 mm 6 m/s 734 mmHg 86%
    15:00 +4°C° 0.1 mm 6 m/s 734 mmHg 86%
    16:00 +4°C° 0.1 mm 6 m/s 734 mmHg 86%
    17:00 +4°C° 0.2 mm 7 m/s 734 mmHg 86%
    18:00 +4°C° 0.2 mm 7 m/s 734 mmHg 85%
    19:00 +4°C° 0.2 mm 7 m/s 735 mmHg 85%
    20:00 +4°C° 0.2 mm 8 m/s 735 mmHg 82%
    21:00 +4°C° 0.2 mm 8 m/s 736 mmHg 80%
    22:00 +2°C° 0.2 mm 9 m/s 736 mmHg 78%
    23:00 +2°C° 0.1 mm 8 m/s 736 mmHg 78%

    23 Decembrie, Duminică

    Timp Temperatura Precipitaţii Vânt Presiune Umiditate
    00:00 +2°C° 0.1 mm 8 m/s 736 mmHg 78%
    01:00 +3°C° 0.1 mm 7 m/s 737 mmHg 78%
    02:00 +3°C° 0 mm 7 m/s 737 mmHg 79%
    03:00 +2°C° 0 mm 7 m/s 737 mmHg 80%
    04:00 +2°C° 0 mm 7 m/s 737 mmHg 81%
    05:00 +2°C° 0 mm 7 m/s 737 mmHg 82%
    06:00 +2°C° 0 mm 7 m/s 737 mmHg 82%
    07:00 +2°C° 0 mm 7 m/s 737 mmHg 83%
    08:00 +2°C° 0.1 mm 7 m/s 738 mmHg 82%
    09:00 +3°C° 0.1 mm 7 m/s 738 mmHg 81%
    10:00 +3°C° 0.1 mm 7 m/s 739 mmHg 80%
    11:00 +3°C° 0.2 mm 7 m/s 739 mmHg 79%
    12:00 +3°C° 0.2 mm 7 m/s 739 mmHg 79%
    13:00 +3°C° 0.2 mm 7 m/s 739 mmHg 78%
    14:00 +3°C° 0.2 mm 7 m/s 739 mmHg 79%
    15:00 +3°C° 0.2 mm 7 m/s 739 mmHg 81%
    16:00 +2°C° 0.2 mm 6 m/s 739 mmHg 82%
    17:00 +2°C° 0.1 mm 6 m/s 740 mmHg 82%
    18:00 +2°C° 0.1 mm 6 m/s 740 mmHg 81%
    19:00 +2°C° 0.1 mm 5 m/s 740 mmHg 81%
    20:00 +2°C° 0.3 mm 6 m/s 740 mmHg 81%
    21:00 +2°C° 0.3 mm 6 m/s 740 mmHg 82%
    22:00 +2°C° 0.3 mm 6 m/s 740 mmHg 82%
    23:00 +1°C° 0.2 mm 6 m/s 740 mmHg 82%

    24 Decembrie, Luni

    Timp Temperatura Precipitaţii Vânt Presiune Umiditate
    00:00 +1°C° 0.2 mm 5 m/s 740 mmHg 83%
    01:00 +1°C° 0.2 mm 5 m/s 740 mmHg 84%
    02:00 +1°C° 0.5 mm 5 m/s 740 mmHg 83%
    03:00 +1°C° 0.5 mm 6 m/s 740 mmHg 83%
    04:00 +1°C° 0.5 mm 6 m/s 740 mmHg 83%
    05:00 +1°C° 0.5 mm 6 m/s 740 mmHg 84%
    06:00 +1°C° 0.5 mm 6 m/s 741 mmHg 85%
    07:00 -1°C° 0.5 mm 7 m/s 741 mmHg 86%
    08:00 -1°C° 0.1 mm 6 m/s 742 mmHg 84%
    09:00 0°C° 0.1 mm 5 m/s 743 mmHg 83%
    10:00 0°C° 0.1 mm 4 m/s 744 mmHg 81%
    11:00 0°C° 0 mm 4 m/s 744 mmHg 80%
    12:00 0°C° 0 mm 4 m/s 744 mmHg 78%
    13:00 0°C° 0 mm 4 m/s 745 mmHg 76%
    14:00 0°C° 0.1 mm 4 m/s 745 mmHg 80%
    15:00 +1°C° 0.1 mm 3 m/s 745 mmHg 83%
    16:00 0°C° 0.1 mm 3 m/s 745 mmHg 87%
    17:00 0°C° 0.2 mm 4 m/s 745 mmHg 88%
    18:00 0°C° 0.2 mm 4 m/s 745 mmHg 88%
    19:00 +1°C° 0.2 mm 5 m/s 745 mmHg 89%
    20:00 +1°C° 0.2 mm 5 m/s 745 mmHg 89%
    21:00 0°C° 0.2 mm 4 m/s 745 mmHg 90%
    22:00 0°C° 0.2 mm 4 m/s 745 mmHg 90%
    23:00 0°C° 0.3 mm 5 m/s 745 mmHg 90%
    Arată mai mult